Retour au catalogue

THORAD DELTA 1 DEB

ActifLEO
NORAD 8164·DEBRIS·🇺🇸 United States

Lancé Nov 15, 1974 depuis Vandenberg Space Force Base

Loading…

Prochains Passages (prochaines 24 heures)

TLE

FraisSource: Space-Track

Époque: Sep 14, 2026, 13:46 UTC

1 08164U 74089AE  26257.57382449 -.00000023  00000-0  15665-3 0  9993
2 08164 101.6477  10.7525 0120995 187.1352 184.9242 12.28975368325595

Suivez THORAD DELTA 1 DEB en temps réel avec AllMySat

Download on the App Store